Regional Weather Roundup
Issued by NWS

Home | Current Version | Previous Version | Graphics & Text | Print | Product List | Glossary On
Versions: 1 2 3 4 5 6 7 8 9 10 11 12 13 14 15 16 17 18 19 20 21 22 23 24 25 26 27 28 29 30 31 32 33 34 35 36 37 38 39 40 41 42 43 44 45 46 47 48 49 50
000
ASUS43 KMKX 271600
RWRWI

WISCONSIN REGIONAL WEATHER ROUNDUP
NATIONAL WEATHER SERVICE MILWAUKEE/SULLIVAN WI
1100 AM CDT THU JUL 27 2017

NOTE: "FAIR" INDICATES FEW OR NO CLOUDS BELOW 12,000 FEET WITH NO
SIGNIFICANT WEATHER AND/OR OBSTRUCTIONS TO VISIBILITY.

WIZ001-002-006>008-014>016-023>028-271700-
NORTHWEST WISCONSIN

CITY           SKY/WX    TMP DP  RH WIND       PRES   REMARKS
SUPERIOR ARPT  NOT AVBL
ASHLAND        SUNNY     76  64  66 N7        30.10
HAYWARD        SUNNY     77  59  53 E6        30.10S
SIREN          SUNNY     76  60  56 CALM      30.10S
CUMBERLAND     SUNNY     73  55  53 CALM      30.10S
RICE LAKE      SUNNY     76  61  60 CALM      30.10S
CHETEK         SUNNY     76  62  60 CALM      30.09S
LADYSMITH      SUNNY     77  60  55 E5        30.11R
EAU CLAIRE     NOT AVBL
MENOMONIE      SUNNY     76  62  61 N5        30.08R
NEW RICHMOND   SUNNY     77  60  56 NE5       30.09S
OSCEOLA        SUNNY     77  62  59 CALM      30.11F
$$

WIZ003>005-009-010-017-018-271700-
NORTH CENTRAL WISCONSIN

CITY           SKY/WX    TMP DP  RH WIND       PRES   REMARKS
MANITOWISH WTR SUNNY     74  58  58 CALM      30.10S
ARBOR VITAE    SUNNY     76  61  59 NE3       30.09S
WOODRUFF       SUNNY     76  61  59 NE3       30.09S
RHINELANDER    SUNNY     75  57  53 VRB7      30.10R
EAGLE RIVER    MOSUNNY   74  56  54 CALM      30.09S
LAND O LAKES   MOSUNNY   76  56  50 N6        30.11S
PHILLIPS       SUNNY     75  60  58 E3        30.09S
TOMAHAWK         N/A     74  57  54 NE5       30.09S
MEDFORD        SUNNY     74  59  58 E8        30.08R
MERRILL        SUNNY     75  61  60 E6        30.07S
$$

WIZ029-030-035-036-043>047-271700-
CENTRAL WISCONSIN

CITY           SKY/WX    TMP DP  RH WIND       PRES   REMARKS
WAUSAU         SUNNY     76  59  55 E12       30.04F
MOSINEE        MOSUNNY   75  61  60 E7        30.07S
MARSHFIELD     SUNNY     78  61  55 NE8       30.06R HX  80
STEVENS POINT  SUNNY     74  59  58 NE8       30.06R
WAUPACA        SUNNY     78  60  53 N7        30.04R HX  80
WAUTOMA        SUNNY     78  61  55 NE6       30.03S HX  80
WISC RAPIDS    SUNNY     80  60  50 E8        30.06R HX  81
CAMP DOUGLAS   NOT AVBL
$$

WIZ011>013-019>022-031-037>040-048>050-271700-
NORTHEAST WISCONSIN

CITY           SKY/WX    TMP DP  RH WIND       PRES   REMARKS
ANTIGO         MOSUNNY   74  59  59 E7        30.08S
SHAWANO        SUNNY     78  60  53 NE8       30.04S HX  80
OCONTO         SUNNY     75  60  59 NE8       30.03S
STURGEON BAY     N/A     73  65  75 N8        30.04R
GREEN BAY      SUNNY     77  67  71 NE9       30.03S
MANITOWOC      NOT AVBL
APPLETON       SUNNY     75  57  53 NE12      30.02R
CLINTONVILLE   SUNNY    N/A N/A N/A E7        30.04S
OSHKOSH        SUNNY     75  63  66 NE12      30.02S
$$

WIZ032>034-041-042-053>061-271700-
SOUTHWEST WISCONSIN

CITY           SKY/WX    TMP DP  RH WIND       PRES   REMARKS
LA CROSSE      SUNNY     81  65  58 NW8       30.04R HX  83
SPARTA         SUNNY     78  59  52 N5        30.05S
VIROQUA        SUNNY     76  62  60 NE8       30.06R
BOSCOBEL       SUNNY     80  60  50 E8        30.02S HX  81
PRAIRIE DU CHI SUNNY     78  60  54 N8        30.01S HX  80
PLATTEVILLE    SUNNY     77  68  73 NE12      30.02S
$$

WIZ056-057-062-063-064-067-068-271700-
SOUTH CENTRAL WISCONSIN

CITY           SKY/WX    TMP DP  RH WIND       PRES   REMARKS
REEDSBURG      SUNNY     77  61  58 NE7       30.03S
BARABOO/DELLS  SUNNY     76  58  53 E13       30.03S
LONE ROCK      NOT AVBL
MINERAL POINT  SUNNY     77  68  73 NE6       30.02S
MADISON        SUNNY     78  61  55 NE13      30.01S HX  80
MIDDLETON      SUNNY     79  62  56 E6        30.02S HX  80
WATERTOWN      SUNNY     76  63  63 NE10G16   30.01R
MONROE         PTSUNNY   73  68  83 NE10      30.00S
JANESVILLE     NOT AVBL
$$

WIZ051-052-058>065-066-070>072-271700-
SOUTHEAST WISCONSIN

CITY           SKY/WX    TMP DP  RH WIND       PRES   REMARKS
MILWAUKEE      MOSUNNY   75  67  76 N18G24    29.99R
WAUKESHA       SUNNY     75  57  53 NE17      30.01R
MILWAUKEE/TIMM SUNNY     75  55  50 NE14G24   30.01R
RACINE         CLOUDY    72  68  87 N16G25    30.00R
KENOSHA        MOSUNNY   77  67  71 N13       29.98S
FOND DU LAC    SUNNY     77  59  53 NE10      30.02S
SHEBOYGAN      SUNNY     75  62  64 NE15      30.01S
WEST BEND      SUNNY     73  61  64 NE10G18   30.02R
JUNEAU         SUNNY     75  60  58 NE10      30.03R
$$

LSZ147-162-271700-
LAKE SUPERIOR

STATION/POSITION TIME  TEMP    WIND        PRES    WAVE
                       AIR SEA DIR/SP/G            HT/PER
                 (UTC) (F)     (DEG/KT/KT) (MB)    (FT/S)
W MID LAKE BUOY  1450   56 52   70/  6/  8 1018.9R   0
DEVILS ISLAND    1500   64      30/  5/  5 1019.2R
SAXON HARBOR     1540   68     320/  5/  5 1018.6S
$$

LMZ867-665-643>646-271700-
LAKE MICHIGAN

STATION/POSITION TIME  TEMP    WIND        PRES    WAVE
                       AIR SEA DIR/SP/G            HT/PER
                 (UTC) (F)     (DEG/KT/KT) (MB)    (FT/S)
CHAMBERS ISLAND  1540   69      10/ 11/ 12 1016.6R
S GREEN BAY BUOY 1530   69 71   50/ 12/ 14 1016.8R
N MID LAKE BUOY  1450   65 66   50/  8/ 10 1017.1R   1/ 3
NORTHPORT PIER   1540   69      70/  8/ 10 1016.9S
KEWAUNEE LAKESHO 1530   70      20/  6/ 11 1016.0R
SHEBOYGAN LAKESH 1500   69      10/ 13/ 14 1015.7R
PORT WASHINGTON  1540   74      40/ 14/ 19 1016.9R
ATWATER BUOY     1409   70 69   10/ 14/ 17 1015.0F
MILWAUKEE LAKESH 1530   70      10/ 16/ 20   N/A
S MID LAKE BUOY  1450   70 71   10/ 12/ 14 1013.9R   1
KENOSHA   LAKESH 1500   70      10/ 14/ 17 1014.6
$$

TC  - TEMPERATURE IN CELSIUS
VSB - VISIBILITY IN STATUTE MILES
WCI - WIND CHILL INDEX
HX  - HEAT INDEX





USA.gov is the U.S. government's official web portal to all federal, state and local government web resources and services.